Time,TemperatureF,DewpointF,PressureIn,WindDirection,WindDirectionDegrees,WindSpeedMPH,WindSpeedGustMPH,Humidity,HourlyPrecipIn,Conditions,Clouds,dailyrainin,SoftwareType,DateUTC
2013-04-11 00:00:00,32.1,30.6,29.79,NNW,327,7.0,7.0,94,0.00,,,0.25,Wunderground v.1.15,2013-04-11 05:00:00,
2013-04-11 00:05:00,32.1,30.6,29.79,NW,309,7.0,9.0,94,0.00,,,0.00,Wunderground v.1.15,2013-04-11 05:05:00,
2013-04-11 00:11:00,32.0,30.5,29.79,NW,306,7.0,9.0,94,0.00,,,0.00,Wunderground v.1.15,2013-04-11 05:11:00,
2013-04-11 00:17:00,32.0,30.5,29.78,NW,317,7.0,9.0,94,0.00,,,0.00,Wunderground v.1.15,2013-04-11 05:17:00,
2013-04-11 00:22:00,32.0,30.5,29.78,WNW,300,7.0,7.0,94,0.00,,,0.00,Wunderground v.1.15,2013-04-11 05:22:00,
2013-04-11 00:28:00,31.9,30.4,29.78,WNW,303,8.0,9.0,94,0.00,,,0.00,Wunderground v.1.15,2013-04-11 05:28:00,
2013-04-11 00:34:00,31.9,30.4,29.78,WNW,303,7.0,10.0,94,0.00,,,0.00,Wunderground v.1.15,2013-04-11 05:34:00,
2013-04-11 00:39:00,31.8,30.3,29.78,NW,309,7.0,10.0,94,0.00,,,0.00,Wunderground v.1.15,2013-04-11 05:39:00,
2013-04-11 00:45:00,31.8,30.3,29.77,NW,323,7.0,8.0,94,0.00,,,0.00,Wunderground v.1.15,2013-04-11 05:45:00,
2013-04-11 00:51:00,31.7,30.2,29.77,NW,313,7.0,7.0,94,0.00,,,0.00,Wunderground v.1.15,2013-04-11 05:51:00,
2013-04-11 00:56:00,31.7,30.2,29.77,NW,319,7.0,8.0,94,0.00,,,0.00,Wunderground v.1.15,2013-04-11 05:56:00,
2013-04-11 01:02:00,31.7,30.2,29.77,NW,307,7.0,7.0,94,0.00,,,0.00,Wunderground v.1.15,2013-04-11 06:02:00,
2013-04-11 01:07:00,31.7,30.2,29.77,NNW,338,6.0,8.0,94,0.00,,,0.00,Wunderground v.1.15,2013-04-11 06:07:00,
2013-04-11 01:13:00,31.6,30.1,29.77,NW,321,6.0,7.0,94,0.00,,,0.00,Wunderground v.1.15,2013-04-11 06:13:00,
2013-04-11 01:20:00,31.6,30.1,29.77,NW,317,6.0,7.0,94,0.00,,,0.00,Wunderground v.1.15,2013-04-11 06:20:00,
2013-04-11 01:26:00,31.5,30.0,29.77,NNW,329,7.0,13.0,94,0.00,,,0.00,Wunderground v.1.15,2013-04-11 06:26:00,
2013-04-11 01:31:00,31.4,29.9,29.76,NW,318,7.0,7.0,94,0.00,,,0.00,Wunderground v.1.15,2013-04-11 06:31:00,
2013-04-11 01:36:00,31.4,29.9,29.76,NW,310,7.0,8.0,94,0.00,,,0.00,Wunderground v.1.15,2013-04-11 06:36:00,
2013-04-11 01:42:00,31.4,29.9,29.76,NW,316,7.0,9.0,94,0.00,,,0.00,Wunderground v.1.15,2013-04-11 06:42:00,
2013-04-11 01:47:00,31.4,29.9,29.76,WNW,300,6.0,9.0,94,0.00,,,0.00,Wunderground v.1.15,2013-04-11 06:47:00,
2013-04-11 01:53:00,31.4,29.9,29.76,NW,315,6.0,7.0,94,0.00,,,0.00,Wunderground v.1.15,2013-04-11 06:53:00,
2013-04-11 01:58:00,31.4,29.9,29.75,NW,320,6.0,7.0,94,0.00,,,0.00,Wunderground v.1.15,2013-04-11 06:58:00,
2013-04-11 02:03:00,31.4,29.9,29.75,NW,314,6.0,6.0,94,0.00,,,0.00,Wunderground v.1.15,2013-04-11 07:03:00,
2013-04-11 02:09:00,31.3,29.8,29.75,NW,309,6.0,7.0,94,0.00,,,0.00,Wunderground v.1.15,2013-04-11 07:09:00,
2013-04-11 02:14:00,31.3,29.8,29.75,NW,309,6.0,7.0,94,0.00,,,0.00,Wunderground v.1.15,2013-04-11 07:14:00,
2013-04-11 02:19:00,31.3,29.8,29.75,NW,309,6.0,7.0,94,0.00,,,0.00,Wunderground v.1.15,2013-04-11 07:19:00,
2013-04-11 02:25:00,31.3,29.8,29.74,WNW,302,7.0,10.0,94,0.00,,,0.00,Wunderground v.1.15,2013-04-11 07:25:00,
2013-04-11 02:31:00,31.3,29.8,29.74,NW,304,6.0,7.0,94,0.00,,,0.00,Wunderground v.1.15,2013-04-11 07:31:00,
2013-04-11 02:36:00,31.2,29.7,29.74,NW,309,6.0,7.0,94,0.00,,,0.00,Wunderground v.1.15,2013-04-11 07:36:00,
2013-04-11 02:42:00,31.2,29.7,29.74,WNW,296,7.0,9.0,94,0.00,,,0.00,Wunderground v.1.15,2013-04-11 07:42:00,
2013-04-11 02:49:00,31.0,29.5,29.74,WNW,287,7.0,9.0,94,0.00,,,0.00,Wunderground v.1.15,2013-04-11 07:49:00,
2013-04-11 02:54:00,30.9,30.9,29.73,WNW,296,7.0,8.0,100,0.00,,,0.00,Wunderground v.1.15,2013-04-11 07:54:00,
2013-04-11 02:59:00,30.8,29.3,29.73,WNW,303,7.0,9.0,94,0.00,,,0.00,Wunderground v.1.15,2013-04-11 07:59:00,
2013-04-11 03:05:00,30.8,29.3,29.73,NW,318,6.0,7.0,94,0.00,,,0.00,Wunderground v.1.15,2013-04-11 08:05:00,
2013-04-11 03:11:00,30.8,29.3,29.72,NW,315,6.0,9.0,94,0.00,,,0.00,Wunderground v.1.15,2013-04-11 08:11:00,
2013-04-11 03:16:00,30.8,29.3,29.72,NW,326,6.0,9.0,94,0.00,,,0.00,Wunderground v.1.15,2013-04-11 08:16:00,
2013-04-11 03:21:00,30.8,29.3,29.72,NW,309,6.0,7.0,94,0.00,,,0.00,Wunderground v.1.15,2013-04-11 08:21:00,
2013-04-11 03:35:00,30.7,29.2,29.71,NW,304,6.0,6.0,94,0.00,,,0.00,Wunderground v.1.15,2013-04-11 08:35:00,
2013-04-11 03:41:00,30.7,29.0,29.71,NW,309,4.0,9.0,94,0.00,,,0.00,weatherlink.com 1.10,2013-04-11 08:41:00,
2013-04-11 03:46:00,30.7,29.2,29.71,WNW,298,5.0,5.0,94,0.00,,,0.00,Wunderground v.1.15,2013-04-11 08:46:00,
2013-04-11 03:51:00,30.7,29.2,29.71,NW,309,6.0,6.0,94,0.00,,,0.00,Wunderground v.1.15,2013-04-11 08:51:00,
2013-04-11 03:57:00,30.6,29.1,29.71,NW,313,6.0,8.0,94,0.00,,,0.00,Wunderground v.1.15,2013-04-11 08:57:00,
2013-04-11 04:03:00,30.6,29.1,29.70,WNW,303,5.0,6.0,94,0.00,,,0.00,Wunderground v.1.15,2013-04-11 09:03:00,
2013-04-11 04:08:00,30.6,29.1,29.70,NW,306,5.0,6.0,94,0.00,,,0.00,Wunderground v.1.15,2013-04-11 09:08:00,
2013-04-11 04:13:00,30.6,29.1,29.70,WNW,297,6.0,8.0,94,0.00,,,0.00,Wunderground v.1.15,2013-04-11 09:13:00,
2013-04-11 04:19:00,30.6,29.1,29.70,NW,305,6.0,8.0,94,0.00,,,0.00,Wunderground v.1.15,2013-04-11 09:19:00,
2013-04-11 04:25:00,30.6,29.1,29.69,NW,311,6.0,9.0,94,0.00,,,0.00,Wunderground v.1.15,2013-04-11 09:25:00,
2013-04-11 04:30:00,30.6,29.1,29.69,WNW,298,6.0,7.0,94,0.00,,,0.00,Wunderground v.1.15,2013-04-11 09:30:00,
2013-04-11 04:36:00,30.6,29.1,29.68,NW,313,6.0,7.0,94,0.00,,,0.00,Wunderground v.1.15,2013-04-11 09:36:00,
2013-04-11 04:41:00,30.5,29.0,29.68,NW,311,6.0,8.0,94,0.00,,,0.00,weatherlink.com 1.10,2013-04-11 09:41:00,
2013-04-11 04:47:00,30.5,29.0,29.67,NW,313,5.0,6.0,94,0.00,,,0.00,Wunderground v.1.15,2013-04-11 09:47:00,
2013-04-11 04:52:00,30.5,29.0,29.68,WNW,298,5.0,7.0,94,0.00,,,0.00,Wunderground v.1.15,2013-04-11 09:52:00,
2013-04-11 04:58:00,30.4,28.9,29.67,NW,304,6.0,8.0,94,0.00,,,0.00,Wunderground v.1.15,2013-04-11 09:58:00,
2013-04-11 05:04:00,30.4,28.9,29.67,NW,304,7.0,10.0,94,0.00,,,0.00,Wunderground v.1.15,2013-04-11 10:04:00,
2013-04-11 05:09:00,30.4,28.9,29.67,WNW,303,6.0,10.0,94,0.00,,,0.00,Wunderground v.1.15,2013-04-11 10:09:00,
2013-04-11 05:19:00,30.3,28.8,29.66,NW,320,6.0,9.0,94,0.00,,,0.00,Wunderground v.1.15,2013-04-11 10:19:00,
2013-04-11 05:24:00,30.2,28.7,29.66,WNW,302,7.0,10.0,94,0.00,,,0.00,Wunderground v.1.15,2013-04-11 10:24:00,
2013-04-11 05:30:00,30.1,28.6,29.66,WNW,290,7.0,10.0,94,0.00,,,0.00,Wunderground v.1.15,2013-04-11 10:30:00,
2013-04-11 05:36:00,30.0,28.2,29.66,NW,306,7.0,10.0,93,0.00,,,0.00,Wunderground v.1.15,2013-04-11 10:36:00,
2013-04-11 05:41:00,30.0,28.2,29.66,WNW,296,6.0,7.0,93,0.00,,,0.00,Wunderground v.1.15,2013-04-11 10:41:00,
2013-04-11 05:47:00,30.0,28.2,29.66,WNW,298,6.0,10.0,93,0.00,,,0.00,Wunderground v.1.15,2013-04-11 10:47:00,
2013-04-11 05:53:00,29.9,28.1,29.66,WNW,301,7.0,9.0,93,0.00,,,0.00,Wunderground v.1.15,2013-04-11 10:53:00,
2013-04-11 05:59:00,29.9,28.1,29.66,NW,309,7.0,9.0,93,0.00,,,0.00,Wunderground v.1.15,2013-04-11 10:59:00,
2013-04-11 06:04:00,29.8,28.0,29.66,WNW,291,6.0,8.0,93,0.00,,,0.00,Wunderground v.1.15,2013-04-11 11:04:00,
2013-04-11 06:09:00,29.8,28.0,29.67,WNW,300,7.0,9.0,93,0.00,,,0.00,Wunderground v.1.15,2013-04-11 11:09:00,
2013-04-11 06:15:00,29.7,27.9,29.67,WNW,291,8.0,8.0,93,0.00,,,0.00,Wunderground v.1.15,2013-04-11 11:15:00,
2013-04-11 06:21:00,29.7,27.9,29.67,West,275,7.0,10.0,93,0.00,,,0.00,Wunderground v.1.15,2013-04-11 11:21:00,
2013-04-11 06:27:00,29.7,27.9,29.67,WNW,296,7.0,10.0,93,0.00,,,0.00,Wunderground v.1.15,2013-04-11 11:27:00,
2013-04-11 06:32:00,29.7,27.9,29.67,West,281,7.0,8.0,93,0.00,,,0.00,Wunderground v.1.15,2013-04-11 11:32:00,
2013-04-11 06:39:00,29.6,27.8,29.67,WNW,300,7.0,8.0,93,0.00,,,0.00,Wunderground v.1.15,2013-04-11 11:39:00,
2013-04-11 06:45:00,29.6,27.8,29.67,West,277,7.0,7.0,93,0.00,,,0.00,Wunderground v.1.15,2013-04-11 11:45:00,
2013-04-11 06:51:00,29.6,27.8,29.66,WNW,287,7.0,9.0,93,0.00,,,0.00,Wunderground v.1.15,2013-04-11 11:51:00,
2013-04-11 06:56:00,29.5,27.7,29.66,WNW,298,8.0,9.0,93,0.00,,,0.00,Wunderground v.1.15,2013-04-11 11:56:00,
2013-04-11 07:01:00,29.5,27.7,29.66,WNW,292,8.0,8.0,93,0.00,,,0.00,Wunderground v.1.15,2013-04-11 12:01:00,
2013-04-11 07:07:00,29.5,27.7,29.67,West,279,8.0,12.0,93,0.00,,,0.00,Wunderground v.1.15,2013-04-11 12:07:00,
2013-04-11 07:13:00,29.5,27.7,29.67,West,277,8.0,10.0,93,0.00,,,0.00,Wunderground v.1.15,2013-04-11 12:13:00,
2013-04-11 07:18:00,29.5,27.7,29.67,WNW,294,8.0,10.0,93,0.00,,,0.00,Wunderground v.1.15,2013-04-11 12:18:00,
2013-04-11 07:24:00,29.6,27.8,29.67,WNW,291,8.0,11.0,93,0.00,,,0.00,Wunderground v.1.15,2013-04-11 12:24:00,
2013-04-11 07:29:00,29.6,27.8,29.68,WNW,288,8.0,11.0,93,0.00,,,0.00,Wunderground v.1.15,2013-04-11 12:29:00,
2013-04-11 07:35:00,29.5,27.7,29.67,West,275,9.0,9.0,93,0.00,,,0.00,Wunderground v.1.15,2013-04-11 12:35:00,
2013-04-11 07:40:00,29.5,27.7,29.67,WNW,292,9.0,9.0,93,0.00,,,0.00,Wunderground v.1.15,2013-04-11 12:40:00,
2013-04-11 07:46:00,29.5,27.7,29.67,WNW,283,8.0,11.0,93,0.00,,,0.00,Wunderground v.1.15,2013-04-11 12:46:00,
2013-04-11 07:52:00,29.6,27.8,29.67,WNW,300,8.0,9.0,93,0.00,,,0.00,Wunderground v.1.15,2013-04-11 12:52:00,
2013-04-11 07:57:00,29.6,27.8,29.67,West,281,9.0,12.0,93,0.00,,,0.00,Wunderground v.1.15,2013-04-11 12:57:00,
2013-04-11 08:03:00,29.6,27.8,29.67,WNW,296,9.0,9.0,93,0.00,,,0.00,Wunderground v.1.15,2013-04-11 13:03:00,
2013-04-11 08:08:00,29.7,27.7,29.67,WNW,292,9.0,10.0,92,0.00,,,0.00,Wunderground v.1.15,2013-04-11 13:08:00,
2013-04-11 08:13:00,29.7,28.0,29.67,WNW,290,7.0,11.0,92,0.00,,,0.00,weatherlink.com 1.10,2013-04-11 13:13:00,
2013-04-11 08:18:00,29.8,27.8,29.67,WNW,286,7.0,10.0,92,0.00,,,0.00,Wunderground v.1.15,2013-04-11 13:18:00,
2013-04-11 08:23:00,29.9,27.9,29.67,West,280,7.0,8.0,92,0.00,,,0.00,Wunderground v.1.15,2013-04-11 13:23:00,
2013-04-11 08:28:00,30.0,28.0,29.67,WNW,291,8.0,11.0,92,0.00,,,0.00,Wunderground v.1.15,2013-04-11 13:28:00,
2013-04-11 08:33:00,30.1,28.1,29.67,WNW,290,8.0,10.0,92,0.00,,,0.00,Wunderground v.1.15,2013-04-11 13:33:00,
2013-04-11 08:39:00,30.1,28.1,29.67,WNW,285,9.0,11.0,92,0.00,,,0.00,Wunderground v.1.15,2013-04-11 13:39:00,
2013-04-11 08:45:00,30.2,28.2,29.67,WNW,282,8.0,10.0,92,0.00,,,0.00,Wunderground v.1.15,2013-04-11 13:45:00,
2013-04-11 08:51:00,30.3,28.3,29.67,West,269,7.0,7.0,92,0.00,,,0.00,Wunderground v.1.15,2013-04-11 13:51:00,
2013-04-11 08:57:00,30.5,28.5,29.66,West,275,8.0,9.0,92,0.00,,,0.00,Wunderground v.1.15,2013-04-11 13:57:00,
2013-04-11 09:03:00,30.5,28.5,29.67,West,274,8.0,11.0,92,0.00,,,0.00,Wunderground v.1.15,2013-04-11 14:03:00,
2013-04-11 09:09:00,30.5,28.5,29.66,West,277,9.0,11.0,92,0.00,,,0.00,Wunderground v.1.15,2013-04-11 14:09:00,
2013-04-11 09:16:00,30.6,28.6,29.67,WNW,288,8.0,10.0,92,0.00,,,0.00,Wunderground v.1.15,2013-04-11 14:16:00,
2013-04-11 09:22:00,30.7,28.7,29.66,West,281,9.0,12.0,92,0.00,,,0.00,Wunderground v.1.15,2013-04-11 14:22:00,
2013-04-11 09:28:00,30.7,28.4,29.66,West,276,9.0,14.0,91,0.00,,,0.00,Wunderground v.1.15,2013-04-11 14:28:00,
2013-04-11 09:33:00,30.8,28.5,29.66,WNW,282,9.0,11.0,91,0.00,,,0.00,Wunderground v.1.15,2013-04-11 14:33:00,
2013-04-11 09:38:00,30.8,28.5,29.66,WNW,286,10.0,13.0,91,0.00,,,0.00,Wunderground v.1.15,2013-04-11 14:38:00,
2013-04-11 09:43:00,30.9,29.0,29.66,West,279,11.0,17.0,91,0.00,,,0.00,weatherlink.com 1.10,2013-04-11 14:43:00,
2013-04-11 09:48:00,31.1,28.8,29.66,WNW,296,9.0,11.0,91,0.00,,,0.00,Wunderground v.1.15,2013-04-11 14:48:00,
2013-04-11 09:55:00,31.2,28.9,29.66,WNW,297,10.0,16.0,91,0.00,,,0.00,Wunderground v.1.15,2013-04-11 14:55:00,
2013-04-11 10:01:00,31.4,29.1,29.66,West,281,10.0,12.0,91,0.00,,,0.00,Wunderground v.1.15,2013-04-11 15:01:00,
2013-04-11 10:07:00,31.3,29.0,29.66,WNW,296,10.0,12.0,91,0.00,,,0.00,Wunderground v.1.15,2013-04-11 15:07:00,
2013-04-11 10:12:00,31.4,29.0,29.66,West,276,10.0,15.0,90,0.00,,,0.00,weatherlink.com 1.10,2013-04-11 15:12:00,
2013-04-11 10:18:00,31.7,29.1,29.66,West,278,10.0,13.0,90,0.00,,,0.00,Wunderground v.1.15,2013-04-11 15:18:00,
2013-04-11 10:24:00,31.8,29.2,29.67,WNW,283,9.0,10.0,90,0.00,,,0.00,Wunderground v.1.15,2013-04-11 15:24:00,
2013-04-11 10:29:00,31.5,29.0,29.66,WNW,286,13.0,18.0,90,0.00,,,0.00,weatherlink.com 1.10,2013-04-11 15:29:00,
2013-04-11 10:34:00,31.5,28.9,29.67,WNW,284,11.0,11.0,90,0.00,,,0.00,Wunderground v.1.15,2013-04-11 15:34:00,
2013-04-11 10:40:00,31.5,28.9,29.67,WNW,294,9.0,11.0,90,0.00,,,0.00,Wunderground v.1.15,2013-04-11 15:40:00,
2013-04-11 10:47:00,31.4,28.8,29.67,WNW,299,11.0,11.0,90,0.00,,,0.00,Wunderground v.1.15,2013-04-11 15:47:00,
2013-04-11 10:53:00,31.4,28.8,29.67,West,275,11.0,16.0,90,0.00,,,0.00,Wunderground v.1.15,2013-04-11 15:53:00,
2013-04-11 10:58:00,31.4,29.0,29.66,WNW,288,6.0,17.0,90,0.00,,,0.00,weatherlink.com 1.10,2013-04-11 15:58:00,
2013-04-11 11:04:00,31.6,29.0,29.66,WNW,295,9.0,10.0,90,0.00,,,0.00,Wunderground v.1.15,2013-04-11 16:04:00,
2013-04-11 11:09:00,31.5,28.9,29.66,WNW,299,9.0,13.0,90,0.00,,,0.00,Wunderground v.1.15,2013-04-11 16:09:00,
2013-04-11 11:17:00,31.5,28.9,29.66,WNW,292,11.0,13.0,90,0.00,,,0.00,Wunderground v.1.15,2013-04-11 16:17:00,
2013-04-11 11:22:00,31.5,28.9,29.66,WNW,286,11.0,12.0,90,0.00,,,0.00,Wunderground v.1.15,2013-04-11 16:22:00,
2013-04-11 11:28:00,31.5,29.0,29.66,WNW,286,9.0,16.0,90,0.00,,,0.00,weatherlink.com 1.10,2013-04-11 16:28:00,
2013-04-11 11:34:00,31.5,28.9,29.66,WNW,299,11.0,14.0,90,0.00,,,0.00,Wunderground v.1.15,2013-04-11 16:34:00,
2013-04-11 11:40:00,31.5,28.9,29.66,NW,306,12.0,15.0,90,0.00,,,0.00,Wunderground v.1.15,2013-04-11 16:40:00,
2013-04-11 11:46:00,31.6,29.0,29.66,NW,315,12.0,15.0,90,0.00,,,0.00,Wunderground v.1.15,2013-04-11 16:46:00,
2013-04-11 11:52:00,31.8,29.2,29.66,WNW,292,10.0,14.0,90,0.00,,,0.00,Wunderground v.1.15,2013-04-11 16:52:00,
2013-04-11 11:58:00,31.8,29.0,29.66,WNW,301,9.0,18.0,90,0.00,,,0.00,weatherlink.com 1.10,2013-04-11 16:58:00,
2013-04-11 12:04:00,31.9,29.3,29.65,WNW,299,11.0,11.0,90,0.00,,,0.00,Wunderground v.1.15,2013-04-11 17:04:00,
2013-04-11 12:09:00,31.9,29.3,29.66,NW,317,11.0,14.0,90,0.00,,,0.00,Wunderground v.1.15,2013-04-11 17:09:00,
2013-04-11 12:15:00,31.9,29.3,29.65,WNW,300,11.0,13.0,90,0.00,,,0.00,Wunderground v.1.15,2013-04-11 17:15:00,
2013-04-11 12:22:00,32.0,29.4,29.65,WNW,290,11.0,15.0,90,0.00,,,0.00,Wunderground v.1.15,2013-04-11 17:22:00,
2013-04-11 12:28:00,32.0,29.0,29.65,WNW,296,11.0,16.0,90,0.00,,,0.00,weatherlink.com 1.10,2013-04-11 17:28:00,
2013-04-11 12:33:00,32.1,29.5,29.66,NW,304,11.0,13.0,90,0.00,,,0.00,Wunderground v.1.15,2013-04-11 17:33:00,
2013-04-11 12:39:00,32.1,29.5,29.65,WNW,292,11.0,14.0,90,0.00,,,0.00,Wunderground v.1.15,2013-04-11 17:39:00,
2013-04-11 12:44:00,32.1,29.5,29.65,NW,309,12.0,16.0,90,0.00,,,0.00,Wunderground v.1.15,2013-04-11 17:44:00,
2013-04-11 12:49:00,32.1,29.5,29.65,NW,306,12.0,16.0,90,0.00,,,0.00,Wunderground v.1.15,2013-04-11 17:49:00,
2013-04-11 12:55:00,32.2,29.6,29.65,NW,306,11.0,14.0,90,0.00,,,0.00,Wunderground v.1.15,2013-04-11 17:55:00,
2013-04-11 13:01:00,32.4,30.1,29.65,WNW,303,10.0,13.0,91,0.00,,,0.00,Wunderground v.1.15,2013-04-11 18:01:00,
2013-04-11 13:07:00,32.3,30.0,29.65,NW,313,10.0,13.0,91,0.00,,,0.00,Wunderground v.1.15,2013-04-11 18:07:00,
2013-04-11 13:12:00,32.5,30.2,29.65,WNW,299,11.0,11.0,91,0.00,,,0.00,Wunderground v.1.15,2013-04-11 18:12:00,
2013-04-11 13:18:00,32.6,30.3,29.65,NW,309,10.0,15.0,91,0.00,,,0.00,Wunderground v.1.15,2013-04-11 18:18:00,
2013-04-11 13:25:00,32.6,30.5,29.65,WNW,291,10.0,11.0,92,0.00,,,0.00,Wunderground v.1.15,2013-04-11 18:25:00,
2013-04-11 13:31:00,32.7,30.6,29.65,West,279,9.0,14.0,92,0.00,,,0.00,Wunderground v.1.15,2013-04-11 18:31:00,
2013-04-11 13:37:00,32.5,30.4,29.65,WNW,291,11.0,14.0,92,0.00,,,0.00,Wunderground v.1.15,2013-04-11 18:37:00,
2013-04-11 13:42:00,32.7,30.6,29.65,West,280,11.0,11.0,92,0.00,,,0.00,Wunderground v.1.15,2013-04-11 18:42:00,
2013-04-11 13:48:00,33.1,31.3,29.64,West,273,10.0,15.0,93,0.00,,,0.00,Wunderground v.1.15,2013-04-11 18:48:00,
2013-04-11 13:55:00,33.2,31.4,29.64,NW,308,11.0,15.0,93,0.00,,,0.00,Wunderground v.1.15,2013-04-11 18:55:00,
2013-04-11 14:01:00,33.0,31.2,29.64,WNW,302,12.0,12.0,93,0.00,,,0.00,Wunderground v.1.15,2013-04-11 19:01:00,
2013-04-11 14:07:00,33.2,31.4,29.64,WNW,294,11.0,13.0,93,0.00,,,0.00,Wunderground v.1.15,2013-04-11 19:07:00,
2013-04-11 14:13:00,33.1,31.0,29.64,WNW,298,11.0,18.0,93,0.00,,,0.00,weatherlink.com 1.10,2013-04-11 19:13:00,
2013-04-11 14:20:00,33.2,31.4,29.64,WNW,283,12.0,12.0,93,0.00,,,0.00,Wunderground v.1.15,2013-04-11 19:20:00,
2013-04-11 14:25:00,33.0,31.2,29.64,WNW,294,11.0,12.0,93,0.00,,,0.01,Wunderground v.1.15,2013-04-11 19:25:00,
2013-04-11 14:31:00,33.2,31.4,29.64,NW,306,12.0,18.0,93,0.00,,,0.01,Wunderground v.1.15,2013-04-11 19:31:00,
2013-04-11 14:38:00,33.7,31.9,29.64,WNW,296,12.0,18.0,93,0.00,,,0.01,Wunderground v.1.15,2013-04-11 19:38:00,
2013-04-11 14:44:00,33.8,32.0,29.64,WNW,303,9.0,18.0,93,0.01,,,0.01,weatherlink.com 1.10,2013-04-11 19:44:00,
2013-04-11 14:49:00,33.9,32.1,29.63,West,277,13.0,17.0,93,0.00,,,0.01,Wunderground v.1.15,2013-04-11 19:49:00,
2013-04-11 14:55:00,33.8,32.0,29.64,WNW,302,13.0,14.0,93,0.00,,,0.01,Wunderground v.1.15,2013-04-11 19:55:00,
2013-04-11 15:00:00,34.2,32.4,29.64,WNW,284,12.0,14.0,93,0.00,,,0.01,Wunderground v.1.15,2013-04-11 20:00:00,
2013-04-11 15:05:00,34.4,32.6,29.64,WNW,298,12.0,16.0,93,0.00,,,0.01,Wunderground v.1.15,2013-04-11 20:05:00,
2013-04-11 15:12:00,34.4,32.6,29.64,WNW,297,13.0,15.0,93,0.00,,,0.01,Wunderground v.1.15,2013-04-11 20:12:00,
2013-04-11 15:18:00,34.1,32.3,29.65,WNW,303,13.0,20.0,93,0.00,,,0.01,Wunderground v.1.15,2013-04-11 20:18:00,
2013-04-11 15:23:00,34.1,32.3,29.65,WNW,292,13.0,15.0,93,0.00,,,0.01,Wunderground v.1.15,2013-04-11 20:23:00,
2013-04-11 15:29:00,34.3,33.0,29.65,WNW,289,14.0,18.0,93,0.00,,,0.01,weatherlink.com 1.10,2013-04-11 20:29:00,
2013-04-11 15:35:00,34.3,32.5,29.65,NW,304,12.0,18.0,93,0.00,,,0.01,Wunderground v.1.15,2013-04-11 20:35:00,
2013-04-11 15:41:00,34.4,32.6,29.65,WNW,300,12.0,13.0,93,0.00,,,0.01,Wunderground v.1.15,2013-04-11 20:41:00,
2013-04-11 15:47:00,34.4,32.6,29.65,WNW,292,12.0,16.0,93,0.00,,,0.01,Wunderground v.1.15,2013-04-11 20:47:00,
2013-04-11 15:52:00,34.4,32.6,29.64,NW,311,13.0,16.0,93,0.00,,,0.01,Wunderground v.1.15,2013-04-11 20:52:00,
2013-04-11 15:57:00,34.4,32.6,29.64,WNW,301,13.0,16.0,93,0.00,,,0.01,Wunderground v.1.15,2013-04-11 20:57:00,
2013-04-11 16:02:00,34.9,33.1,29.64,NW,306,12.0,15.0,93,0.00,,,0.01,Wunderground v.1.15,2013-04-11 21:02:00,
2013-04-11 16:08:00,35.0,33.2,29.64,NNW,328,12.0,15.0,93,0.00,,,0.01,Wunderground v.1.15,2013-04-11 21:08:00,
2013-04-11 16:14:00,35.4,34.0,29.64,WNW,295,9.0,18.0,93,0.00,,,0.01,weatherlink.com 1.10,2013-04-11 21:14:00,
2013-04-11 16:19:00,35.7,33.9,29.64,WNW,290,11.0,14.0,93,0.00,,,0.01,Wunderground v.1.15,2013-04-11 21:19:00,
2013-04-11 16:24:00,35.5,33.7,29.64,NW,320,11.0,18.0,93,0.00,,,0.01,Wunderground v.1.15,2013-04-11 21:24:00,
2013-04-11 16:30:00,35.0,33.2,29.64,NW,304,12.0,12.0,93,0.00,,,0.01,Wunderground v.1.15,2013-04-11 21:30:00,
2013-04-11 16:35:00,34.8,32.7,29.64,WNW,300,12.0,13.0,92,0.00,,,0.01,Wunderground v.1.15,2013-04-11 21:35:00,
2013-04-11 16:41:00,35.0,32.9,29.65,WNW,296,11.0,12.0,92,0.00,,,0.01,Wunderground v.1.15,2013-04-11 21:41:00,
2013-04-11 16:46:00,34.8,32.7,29.64,WNW,300,12.0,16.0,92,0.00,,,0.01,Wunderground v.1.15,2013-04-11 21:46:00,
2013-04-11 16:52:00,34.8,32.7,29.64,West,281,12.0,12.0,92,0.00,,,0.01,Wunderground v.1.15,2013-04-11 21:52:00,
2013-04-11 16:57:00,34.8,32.7,29.65,NW,310,12.0,15.0,92,0.00,,,0.01,Wunderground v.1.15,2013-04-11 21:57:00,
2013-04-11 17:02:00,34.9,32.8,29.65,NW,319,12.0,17.0,92,0.00,,,0.01,Wunderground v.1.15,2013-04-11 22:02:00,
2013-04-11 17:08:00,34.9,32.8,29.65,WNW,302,12.0,17.0,92,0.00,,,0.01,Wunderground v.1.15,2013-04-11 22:08:00,
2013-04-11 17:14:00,35.0,32.9,29.65,NW,314,11.0,12.0,92,0.00,,,0.01,Wunderground v.1.15,2013-04-11 22:14:00,
2013-04-11 17:20:00,34.9,32.8,29.65,WNW,293,10.0,10.0,92,0.00,,,0.01,Wunderground v.1.15,2013-04-11 22:20:00,
2013-04-11 17:26:00,35.0,32.9,29.65,WNW,294,10.0,14.0,92,0.00,,,0.01,Wunderground v.1.15,2013-04-11 22:26:00,
2013-04-11 17:32:00,35.0,32.6,29.65,WNW,299,11.0,11.0,91,0.00,,,0.01,Wunderground v.1.15,2013-04-11 22:32:00,
2013-04-11 17:38:00,35.1,32.7,29.65,WNW,290,9.0,12.0,91,0.00,,,0.01,Wunderground v.1.15,2013-04-11 22:38:00,
2013-04-11 17:44:00,35.0,33.0,29.65,WNW,302,13.0,20.0,91,0.00,,,0.01,weatherlink.com 1.10,2013-04-11 22:44:00,
2013-04-11 17:49:00,35.0,32.4,29.65,WNW,300,11.0,13.0,90,0.00,,,0.01,Wunderground v.1.15,2013-04-11 22:49:00,
2013-04-11 17:55:00,35.0,32.4,29.65,NW,315,11.0,12.0,90,0.00,,,0.01,Wunderground v.1.15,2013-04-11 22:55:00,
2013-04-11 18:00:00,35.1,32.5,29.65,NW,304,10.0,10.0,90,0.00,,,0.01,Wunderground v.1.15,2013-04-11 23:00:00,
2013-04-11 18:06:00,35.1,32.5,29.65,NW,306,10.0,14.0,90,0.00,,,0.01,Wunderground v.1.15,2013-04-11 23:06:00,
2013-04-11 18:12:00,35.2,32.3,29.65,NW,306,10.0,12.0,89,0.00,,,0.01,Wunderground v.1.15,2013-04-11 23:12:00,
2013-04-11 18:18:00,35.2,32.3,29.65,NW,324,9.0,14.0,89,0.00,,,0.01,Wunderground v.1.15,2013-04-11 23:18:00,
2013-04-11 18:23:00,35.2,32.3,29.66,NW,323,9.0,10.0,89,0.00,,,0.01,Wunderground v.1.15,2013-04-11 23:23:00,
2013-04-11 18:28:00,35.1,32.2,29.66,NW,309,9.0,16.0,89,0.00,,,0.01,Wunderground v.1.15,2013-04-11 23:28:00,
2013-04-11 18:33:00,35.0,31.8,29.66,NW,313,10.0,14.0,88,0.00,,,0.01,Wunderground v.1.15,2013-04-11 23:33:00,
2013-04-11 18:39:00,34.9,31.7,29.66,NW,307,11.0,17.0,88,0.00,,,0.01,Wunderground v.1.15,2013-04-11 23:39:00,
2013-04-11 18:45:00,34.9,31.7,29.66,NW,314,11.0,12.0,88,0.00,,,0.01,Wunderground v.1.15,2013-04-11 23:45:00,
2013-04-11 18:51:00,34.8,31.6,29.66,WNW,293,11.0,11.0,88,0.00,,,0.01,Wunderground v.1.15,2013-04-11 23:51:00,
2013-04-11 18:57:00,34.7,31.5,29.66,NW,319,10.0,13.0,88,0.00,,,0.01,Wunderground v.1.15,2013-04-11 23:57:00,
2013-04-11 19:04:00,34.6,31.4,29.66,NW,320,10.0,11.0,88,0.00,,,0.01,Wunderground v.1.15,2013-04-12 00:04:00,
2013-04-11 19:10:00,34.6,31.4,29.66,NW,312,10.0,11.0,88,0.00,,,0.01,Wunderground v.1.15,2013-04-12 00:10:00,
2013-04-11 19:16:00,34.4,31.2,29.67,NW,311,10.0,12.0,88,0.00,,,0.01,Wunderground v.1.15,2013-04-12 00:16:00,
2013-04-11 19:21:00,34.4,31.2,29.67,WNW,294,10.0,11.0,88,0.00,,,0.01,Wunderground v.1.15,2013-04-12 00:21:00,
2013-04-11 19:26:00,34.4,31.2,29.67,NW,323,10.0,12.0,88,0.00,,,0.01,Wunderground v.1.15,2013-04-12 00:26:00,
2013-04-11 19:31:00,34.4,31.2,29.67,NW,318,10.0,14.0,88,0.00,,,0.01,Wunderground v.1.15,2013-04-12 00:31:00,
2013-04-11 19:37:00,34.4,31.2,29.67,NW,316,8.0,14.0,88,0.00,,,0.01,Wunderground v.1.15,2013-04-12 00:37:00,
2013-04-11 19:43:00,34.4,30.9,29.67,NW,317,9.0,11.0,87,0.00,,,0.01,Wunderground v.1.15,2013-04-12 00:43:00,
2013-04-11 19:49:00,34.3,30.5,29.67,NNW,331,10.0,17.0,86,0.00,,,0.01,Wunderground v.1.15,2013-04-12 00:49:00,
2013-04-11 19:55:00,34.1,30.4,29.67,NW,318,11.0,17.0,86,0.00,,,0.01,Wunderground v.1.15,2013-04-12 00:55:00,
2013-04-11 20:00:00,34.1,30.0,29.68,NW,309,7.0,18.0,86,0.00,,,0.01,weatherlink.com 1.10,2013-04-12 01:00:00,
2013-04-11 20:06:00,34.0,30.3,29.68,NW,322,9.0,12.0,86,0.00,,,0.01,Wunderground v.1.15,2013-04-12 01:06:00,
2013-04-11 20:12:00,34.1,30.6,29.68,NW,321,8.0,10.0,87,0.00,,,0.01,Wunderground v.1.15,2013-04-12 01:12:00,
2013-04-11 20:17:00,34.0,30.3,29.68,NW,307,9.0,10.0,86,0.00,,,0.01,Wunderground v.1.15,2013-04-12 01:17:00,
2013-04-11 20:23:00,33.8,30.1,29.68,NW,309,10.0,14.0,86,0.00,,,0.01,Wunderground v.1.15,2013-04-12 01:23:00,
2013-04-11 20:28:00,33.7,30.0,29.68,NW,319,11.0,15.0,86,0.00,,,0.01,Wunderground v.1.15,2013-04-12 01:28:00,
2013-04-11 20:34:00,33.6,29.9,29.68,NW,325,11.0,14.0,86,0.00,,,0.01,Wunderground v.1.15,2013-04-12 01:34:00,
2013-04-11 20:39:00,33.5,29.8,29.68,NW,313,10.0,14.0,86,0.00,,,0.01,Wunderground v.1.15,2013-04-12 01:39:00,
2013-04-11 20:44:00,33.4,29.4,29.68,NNW,329,10.0,13.0,85,0.00,,,0.01,Wunderground v.1.15,2013-04-12 01:44:00,
2013-04-11 20:50:00,33.3,29.3,29.69,NW,323,12.0,12.0,85,0.00,,,0.01,Wunderground v.1.15,2013-04-12 01:50:00,
2013-04-11 20:55:00,33.3,29.3,29.69,NW,318,10.0,12.0,85,0.00,,,0.01,Wunderground v.1.15,2013-04-12 01:55:00,
2013-04-11 21:00:00,33.2,29.0,29.69,NW,319,8.0,16.0,85,0.00,,,0.01,weatherlink.com 1.10,2013-04-12 02:00:00,
2013-04-11 21:06:00,33.1,29.1,29.69,WNW,303,9.0,10.0,85,0.00,,,0.01,Wunderground v.1.15,2013-04-12 02:06:00,
2013-04-11 21:12:00,33.0,29.0,29.69,WNW,298,8.0,8.0,85,0.00,,,0.01,Wunderground v.1.15,2013-04-12 02:12:00,
2013-04-11 21:18:00,33.0,29.0,29.69,WNW,290,8.0,10.0,85,0.00,,,0.01,Wunderground v.1.15,2013-04-12 02:18:00,
2013-04-11 21:24:00,32.9,28.9,29.70,NW,309,9.0,12.0,85,0.00,,,0.01,Wunderground v.1.15,2013-04-12 02:24:00,
2013-04-11 21:29:00,32.9,28.9,29.70,WNW,298,9.0,12.0,85,0.00,,,0.01,Wunderground v.1.15,2013-04-12 02:29:00,
2013-04-11 21:35:00,32.9,28.9,29.70,WNW,302,10.0,16.0,85,0.00,,,0.01,Wunderground v.1.15,2013-04-12 02:35:00,
2013-04-11 21:40:00,32.8,28.8,29.70,WNW,298,11.0,11.0,85,0.00,,,0.01,Wunderground v.1.15,2013-04-12 02:40:00,
2013-04-11 21:46:00,32.8,29.0,29.70,NW,307,11.0,16.0,85,0.00,,,0.01,weatherlink.com 1.10,2013-04-12 02:46:00,
2013-04-11 21:51:00,32.8,28.8,29.70,WNW,292,11.0,11.0,85,0.00,,,0.01,Wunderground v.1.15,2013-04-12 02:51:00,
2013-04-11 21:56:00,32.8,28.8,29.71,WNW,303,10.0,12.0,85,0.00,,,0.01,Wunderground v.1.15,2013-04-12 02:56:00,
2013-04-11 22:02:00,32.8,28.8,29.71,WNW,301,10.0,11.0,85,0.00,,,0.01,Wunderground v.1.15,2013-04-12 03:02:00,
2013-04-11 22:07:00,32.8,28.8,29.71,WNW,294,9.0,11.0,85,0.00,,,0.01,Wunderground v.1.15,2013-04-12 03:07:00,
2013-04-11 22:14:00,32.7,29.0,29.71,WNW,290,9.0,12.0,86,0.00,,,0.01,Wunderground v.1.15,2013-04-12 03:14:00,
2013-04-11 22:20:00,32.7,29.0,29.71,WNW,301,10.0,10.0,86,0.00,,,0.01,Wunderground v.1.15,2013-04-12 03:20:00,
2013-04-11 22:25:00,32.7,29.0,29.71,WNW,296,9.0,11.0,86,0.00,,,0.01,Wunderground v.1.15,2013-04-12 03:25:00,
2013-04-11 22:31:00,32.6,28.6,29.71,NW,304,9.0,11.0,85,0.00,,,0.01,Wunderground v.1.15,2013-04-12 03:31:00,
2013-04-11 22:36:00,32.6,28.6,29.71,NW,308,9.0,11.0,85,0.00,,,0.01,Wunderground v.1.15,2013-04-12 03:36:00,
2013-04-11 22:41:00,32.6,28.6,29.72,WNW,301,10.0,10.0,85,0.00,,,0.01,Wunderground v.1.15,2013-04-12 03:41:00,
2013-04-11 22:47:00,32.5,28.5,29.72,NW,315,9.0,11.0,85,0.00,,,0.01,Wunderground v.1.15,2013-04-12 03:47:00,
2013-04-11 22:53:00,32.5,28.5,29.72,NW,317,8.0,13.0,85,0.00,,,0.01,Wunderground v.1.15,2013-04-12 03:53:00,
2013-04-11 22:58:00,32.5,28.2,29.72,NW,309,10.0,15.0,84,0.00,,,0.01,Wunderground v.1.15,2013-04-12 03:58:00,
2013-04-11 23:00:00,32.5,28.0,29.72,NW,319,12.0,18.0,84,0.00,,,0.01,weatherlink.com 1.10,2013-04-12 04:00:00,
2013-04-11 23:01:00,32.5,28.2,29.72,WNW,302,10.0,10.0,84,0.00,,,0.01,Wunderground v.1.15,2013-04-12 04:01:00,
2013-04-11 23:05:00,32.5,28.2,29.72,NW,319,11.0,11.0,84,0.00,,,0.01,Wunderground v.1.15,2013-04-12 04:05:00,
2013-04-11 23:09:00,32.4,28.1,29.71,NW,306,10.0,11.0,84,0.00,,,0.01,Wunderground v.1.15,2013-04-12 04:09:00,
2013-04-11 23:14:00,32.3,28.0,29.71,WNW,302,10.0,10.0,84,0.00,,,0.01,Wunderground v.1.15,2013-04-12 04:14:00,
2013-04-11 23:20:00,32.3,28.0,29.71,WNW,298,12.0,17.0,84,0.00,,,0.01,weatherlink.com 1.10,2013-04-12 04:20:00,
2013-04-11 23:26:00,32.3,28.0,29.71,NW,304,12.0,16.0,84,0.00,,,0.01,Wunderground v.1.15,2013-04-12 04:26:00,
2013-04-11 23:32:00,32.3,28.0,29.71,NW,311,11.0,13.0,84,0.00,,,0.01,Wunderground v.1.15,2013-04-12 04:32:00,
2013-04-11 23:38:00,32.4,28.1,29.72,NW,312,10.0,14.0,84,0.00,,,0.01,Wunderground v.1.15,2013-04-12 04:38:00,
2013-04-11 23:44:00,32.3,28.0,29.72,NW,313,9.0,10.0,84,0.00,,,0.01,Wunderground v.1.15,2013-04-12 04:44:00,
2013-04-11 23:50:00,32.3,28.0,29.72,NW,319,9.0,10.0,84,0.00,,,0.01,Wunderground v.1.15,2013-04-12 04:50:00,
2013-04-11 23:56:00,32.3,28.0,29.72,NW,313,10.0,14.0,84,0.00,,,0.01,Wunderground v.1.15,2013-04-12 04:56:00,